Latest Weather Observations for Archerfield

IDQ60801

Issued at 10:35 am EST Friday 18 April 2014 (issued every 30 minutes, with the page automatically refreshed every 10 minutes)

About weather observations | Map of weather stations | Latest weather observations for QLD | Other Formats
Station Details ID: 040211 Name: ARCHERFIELD AIRPORT Lat: -27.57 Lon: 153.01 Height: 12.5 m
Data from the previous 72 hours. | See also: Recent months at Archerfield
Date/Time
EST
Temp
°C
App
Temp
°C
Dew
Point
Rel
Hum
%
Delta-T
°C
Wind Press
QNH
hPa
Press
MSL
hPa
Rain
since 9 am
mm
Dir
 
Spd
km/h
Gust
km/h
Spd
kts
Gust
kts
18/10:30am 24.5 25.4 16.2 60 5.1 NW 6 13 3 7 1016.6 - 0.0
18/10:00am 23.0 23.5 15.1 61 4.7 WNW 6 9 3 5 1016.8 - 0.0
18/09:30am 22.3 23.1 15.9 67 3.9 SW 6 11 3 6 1017.0 - 0.0
18/09:00am 21.4 22.1 16.1 72 3.2 WSW 7 13 4 7 1017.4 1017.3 0.0
18/08:30am 19.7 20.4 15.6 77 2.4 WSW 6 9 3 5 1017.5 - 0.0
18/08:00am 18.7 19.3 15.9 84 1.7 SW 7 9 4 5 1017.6 - 0.0
18/07:30am 16.9 17.9 15.4 91 0.9 SSW 4 7 2 4 1017.4 - 0.0
18/07:00am 15.8 16.5 14.5 92 0.7 SSW 4 7 2 4 1017.1 - 0.0
18/06:30am 14.4 15.4 13.1 92 0.7 CALM 0 0 0 0 1016.9 - 0.0
18/06:00am 13.5 14.0 11.7 89 1.0 SSW 0 4 0 2 1016.6 1016.5 0.0
18/05:30am 14.6 14.2 12.5 87 1.1 S 6 9 3 5 1016.4 - 0.0
18/05:00am 15.9 17.3 14.4 91 0.9 CALM 0 6 0 3 1016.3 - 0.0
18/04:30am 15.2 16.4 13.7 91 0.8 CALM 0 0 0 0 1016.5 - 0.0
18/04:00am 15.6 17.0 14.3 92 0.7 CALM 0 4 0 2 1016.4 - 0.0
18/03:30am 15.8 16.0 14.3 91 0.9 SW 6 7 3 4 1016.4 - 0.0
18/03:00am 16.2 16.3 14.0 87 1.2 SSW 6 7 3 4 1016.4 1016.3 0.0
18/02:30am 16.3 17.6 14.0 86 1.3 CALM 0 2 0 1 1016.4 - 0.0
18/02:00am 16.9 17.0 14.5 86 1.4 S 7 9 4 5 1016.5 - 0.0
18/01:30am 16.3 16.4 14.0 86 1.3 S 6 7 3 4 1016.8 - 0.0
18/01:00am 16.7 16.5 14.7 88 1.2 S 9 11 5 6 1017.0 - 0.0
18/12:30am 17.1 17.4 14.6 85 1.4 S 6 7 3 4 1017.1 - 0.0
18/12:00am 18.0 18.6 15.3 84 1.6 S 6 7 3 4 1017.3 1017.2 0.0
 
Date/Time
EST
Temp
°C
App
Temp
°C
Dew
Point
Rel
Hum
%
Delta-T
°C
Wind Press
QNH
hPa
Press
MSL
hPa
Rain
since 9 am
mm
Dir
 
Spd
km/h
Gust
km/h
Spd
kts
Gust
kts
17/11:30pm 17.4 17.8 15.2 87 1.3 SSW 7 9 4 5 1017.6 - 0.0
17/11:00pm 17.8 18.6 14.9 83 1.7 S 4 7 2 4 1017.4 - 0.0
17/10:30pm 17.8 18.1 14.9 83 1.7 NNE 7 9 4 5 1017.6 - 0.0
17/10:00pm 19.0 18.6 15.3 79 2.2 SSE 11 17 6 9 1017.8 - 0.0
17/09:30pm 19.6 21.2 15.0 75 2.7 CALM 0 0 0 0 1017.5 - 0.0
17/09:00pm 19.7 21.1 14.5 72 3.0 CALM 0 0 0 0 1017.4 1017.3 0.0
17/08:30pm 19.8 20.1 14.6 72 3.0 NNE 6 7 3 4 1017.2 - 0.0
17/08:00pm 19.0 19.0 14.3 74 2.7 N 7 7 4 4 1016.9 - 0.0
17/07:30pm 19.5 19.6 14.5 73 2.9 NNE 7 9 4 5 1016.8 - 0.0
17/07:00pm 19.5 19.5 14.1 71 3.1 NNE 7 9 4 5 1016.3 - 0.0
17/06:30pm 19.1 18.7 14.1 73 2.9 NNE 9 11 5 6 1015.9 - 0.0
17/06:00pm 21.1 20.1 14.5 66 3.9 NE 13 17 7 9 1015.6 1015.5 0.0
17/05:30pm 22.4 20.5 14.3 60 4.8 NE 17 20 9 11 1015.4 - 0.0
17/05:00pm 23.5 20.9 13.9 55 5.6 NE 20 26 11 14 1015.0 - 0.0
17/04:30pm 24.4 21.2 13.0 49 6.6 NE 22 28 12 15 1014.6 - 0.0
17/04:00pm 26.4 25.0 12.1 41 8.2 SE 11 15 6 8 1014.3 - 0.0
17/03:30pm 25.9 25.6 12.7 44 7.7 E 6 11 3 6 1014.3 - 0.0
17/03:00pm 25.7 25.5 12.9 45 7.4 ESE 6 11 3 6 1014.3 1014.2 0.0
17/02:30pm 26.2 24.1 12.3 42 8.0 S 15 20 8 11 1014.5 - 0.0
17/02:00pm 27.4 27.0 13.0 41 8.4 N 7 17 4 9 1014.7 - 0.0
17/01:30pm 26.4 25.6 11.7 40 8.4 WSW 7 17 4 9 1015.2 - 0.0
17/01:00pm 26.3 24.4 13.1 44 7.7 W 15 20 8 11 1015.6 - 0.0
17/12:30pm 26.1 24.9 12.9 44 7.7 W 11 17 6 9 1015.9 - 0.0
17/12:00pm 25.7 25.4 13.2 46 7.3 WNW 7 26 4 14 1016.5 1016.4 0.0
17/11:30am 25.1 24.3 13.0 47 7.0 SSE 9 17 5 9 1017.0 - 0.0
17/11:00am 24.7 24.2 12.6 47 7.0 SW 7 11 4 6 1017.6 - 0.0
17/10:30am 24.3 24.2 13.8 52 6.2 WSW 7 11 4 6 1017.9 - 0.0
17/10:00am 23.2 23.1 13.9 56 5.4 WSW 7 17 4 9 1018.3 - 0.0
17/09:30am 22.4 21.6 14.0 59 4.9 SSW 11 19 6 10 1018.4 - 0.0
17/09:00am 21.5 21.3 14.6 65 4.0 WSW 9 15 5 8 1018.5 1018.4 0.0
17/08:30am 20.2 19.7 14.8 71 3.2 WSW 11 15 6 8 1018.4 - 0.0
17/08:00am 19.1 19.3 15.8 81 2.0 SW 9 13 5 7 1018.4 - 0.0
17/07:30am 17.6 17.5 14.9 84 1.6 WSW 9 11 5 6 1018.1 - 0.0
17/07:00am 16.2 16.4 14.6 90 0.9 SSW 7 9 4 5 1017.8 - 0.0
17/06:30am 15.1 14.6 13.8 92 0.7 S 9 11 5 6 1017.5 - 0.0
17/06:00am 15.0 15.7 13.5 91 0.8 SW 2 7 1 4 1017.3 1017.2 0.0
17/05:30am 15.1 15.2 13.8 92 0.7 SW 6 7 3 4 1017.1 - 0.0
17/05:00am 14.9 15.2 13.4 91 0.8 WSW 4 7 2 4 1016.8 - 0.0
17/04:30am 15.3 15.2 14.0 92 0.7 SW 7 7 4 4 1016.6 - 0.0
17/04:00am 15.4 15.6 14.1 92 0.7 SW 6 7 3 4 1016.4 - 0.0
17/03:30am 15.3 16.7 14.3 94 0.6 CALM 0 0 0 0 1016.2 - 0.0
17/03:00am 14.7 15.3 13.1 90 0.9 SW 2 6 1 3 1016.2 1016.1 0.0
17/02:30am 15.2 15.6 13.6 90 0.9 SSW 4 7 2 4 1016.2 - 0.0
17/02:00am 15.3 16.6 14.0 92 0.7 CALM 0 2 0 1 1016.4 - 0.0
17/01:30am 15.4 16.6 13.9 91 0.8 CALM 0 0 0 0 1016.6 - 0.0
17/01:00am 16.0 17.4 14.5 91 0.9 CALM 0 0 0 0 1016.7 - 0.0
17/12:30am 15.1 15.8 13.5 90 0.9 S 2 6 1 3 1016.6 - 0.0
17/12:00am 16.6 16.1 15.0 90 0.9 S 11 11 6 6 1016.6 1016.5 0.0
 
Date/Time
EST
Temp
°C
App
Temp
°C
Dew
Point
Rel
Hum
%
Delta-T
°C
Wind Press
QNH
hPa
Press
MSL
hPa
Rain
since 9 am
mm
Dir
 
Spd
km/h
Gust
km/h
Spd
kts
Gust
kts
16/11:30pm 16.6 17.9 14.2 86 1.4 CALM 0 7 0 4 1016.6 - 0.0
16/11:00pm 17.2 18.1 14.1 82 1.8 SSW 2 6 1 3 1016.6 - 0.0
16/10:30pm 18.1 19.5 14.4 79 2.1 CALM 0 6 0 3 1016.7 - 0.0
16/10:00pm 17.9 18.7 13.8 77 2.3 ENE 2 9 1 5 1016.8 - 0.0
16/09:30pm 19.4 21.1 15.3 77 2.4 CALM 0 0 0 0 1016.7 - 0.0
16/09:00pm 18.4 20.0 14.9 80 2.0 CALM 0 0 0 0 1016.3 1016.2 0.0
16/08:30pm 19.0 20.0 15.3 79 2.2 NNE 4 6 2 3 1016.1 - 0.0
16/08:00pm 20.0 20.5 15.6 76 2.6 ENE 7 9 4 5 1015.9 - 0.0
16/07:30pm 20.4 21.6 15.8 75 2.7 ENE 4 9 2 5 1015.5 - 0.0
16/07:00pm 19.8 20.0 14.6 72 3.0 NE 7 9 4 5 1015.2 - 0.0
16/06:30pm 20.1 20.4 14.9 72 3.0 NE 7 11 4 6 1014.9 - 0.0
16/06:00pm 21.4 20.9 14.8 66 3.9 ENE 11 15 6 8 1014.5 1014.4 0.0
16/05:30pm 22.3 20.9 14.4 61 4.6 ENE 15 19 8 10 1014.2 - 0.0
16/05:00pm 24.2 23.3 14.9 56 5.6 ENE 13 20 7 11 1013.9 - 0.0
16/04:30pm 25.5 24.8 12.0 43 7.7 SSE 7 11 4 6 1013.6 - 0.0
16/04:00pm 25.8 24.1 12.3 43 7.8 S 13 17 7 9 1013.4 - 0.0
16/03:30pm 25.9 23.2 11.6 40 8.1 S 17 22 9 12 1013.3 - 0.0
16/03:00pm 26.1 23.7 12.5 42 7.9 SSE 17 20 9 11 1013.3 1013.2 0.0
16/02:30pm 27.2 25.1 12.4 40 8.6 SE 15 22 8 12 1013.4 - 0.0
16/02:00pm 25.9 23.7 12.0 42 8.0 S 15 20 8 11 1013.4 - 0.0
16/01:30pm 26.9 25.7 14.0 45 7.7 SW 13 22 7 12 1013.8 - 0.0
16/01:00pm 26.4 25.8 13.5 45 7.6 SSW 9 15 5 8 1014.1 - 0.0
16/12:30pm 25.8 24.7 14.3 49 6.8 WSW 13 22 7 12 1014.5 - 0.0
16/12:00pm 25.8 26.1 14.6 50 6.7 SSE 6 11 3 6 1014.9 1014.8 0.0
16/11:30am 24.6 23.3 13.8 51 6.3 SW 13 20 7 11 1015.5 - 0.0
16/11:00am 24.1 22.7 13.3 51 6.3 WSW 13 19 7 10 1016.0 - 0.0
16/10:30am 23.4 22.6 14.1 56 5.5 WSW 11 19 6 10 1016.5 - 0.0
16/10:00am 22.7 22.0 15.3 63 4.4 SSW 13 20 7 11 1016.8 - 0.0
16/09:30am 21.7 20.7 14.6 64 4.2 SW 13 20 7 11 1017.0 - 0.0
16/09:00am 20.6 19.1 14.3 67 3.7 W 15 20 8 11 1017.0 1016.9 0.0
16/08:30am 19.6 18.1 14.2 71 3.1 WSW 15 20 8 11 1017.1 - 0.0
16/08:00am 18.8 17.9 14.9 78 2.3 WSW 13 19 7 10 1016.9 - 0.0
16/07:30am 17.3 16.9 14.0 81 1.9 WSW 9 13 5 7 1016.6 - 0.0
16/07:00am 16.0 15.9 13.8 87 1.2 WSW 7 9 4 5 1016.3 - 0.0
16/06:30am 15.0 16.1 13.5 91 0.8 CALM 0 0 0 0 1015.8 - 0.0
16/06:00am 14.3 14.8 12.9 91 0.8 SW 2 6 1 3 1015.6 1015.5 0.0
16/05:30am 14.2 15.0 12.6 90 0.9 CALM 0 0 0 0 1015.4 - 0.0
16/05:00am 14.6 15.2 13.1 91 0.8 SSW 2 6 1 3 1015.4 - 0.0
16/04:30am 14.9 15.9 13.1 89 1.0 CALM 0 0 0 0 1015.3 - 0.0
16/04:00am 14.8 14.6 13.0 89 1.0 SW 6 7 3 4 1015.1 - 0.0
16/03:30am 15.3 15.0 13.3 88 1.1 S 7 9 4 5 1015.1 - 0.0
16/03:00am 15.3 14.6 13.3 88 1.1 SW 9 13 5 7 1015.2 1015.1 0.0
16/02:30am 15.0 14.5 12.7 86 1.3 WSW 7 11 4 6 1015.1 - 0.0
16/02:00am 15.6 15.3 13.3 86 1.3 SW 7 13 4 7 1015.0 - 0.0
16/01:30am 15.9 15.6 13.4 85 1.4 WSW 7 11 4 6 1015.5 - 0.0
16/01:00am 16.2 16.2 13.5 84 1.5 SW 6 7 3 4 1015.7 - 0.0
16/12:30am 16.4 15.5 13.7 84 1.5 WSW 11 13 6 7 1015.7 - 0.0
16/12:00am 16.7 17.1 13.6 82 1.7 SSW 4 9 2 5 1015.9 1015.8 0.0
 
Date/Time
EST
Temp
°C
App
Temp
°C
Dew
Point
Rel
Hum
%
Delta-T
°C
Wind Press
QNH
hPa
Press
MSL
hPa
Rain
since 9 am
mm
Dir
 
Spd
km/h
Gust
km/h
Spd
kts
Gust
kts
15/11:30pm 16.7 17.8 13.6 82 1.7 CALM 0 0 0 0 1016.0 - 0.0
15/11:00pm 16.7 17.0 13.4 81 1.9 WSW 4 7 2 4 1016.2 - 0.0
15/10:30pm 16.9 16.5 14.2 84 1.5 WSW 9 11 5 6 1016.4 - 0.0
15/10:00pm 16.8 16.7 13.9 83 1.6 SW 7 9 4 5 1016.4 - 0.0
15/09:30pm 17.4 17.0 14.1 81 1.9 S 9 11 5 6 1016.3 - 0.0
15/09:00pm 17.8 17.8 14.3 80 2.0 S 7 9 4 5 1016.3 1016.2 0.0
15/08:30pm 17.9 18.2 14.6 81 1.9 WSW 6 7 3 4 1016.5 - 0.0
15/08:00pm 19.3 18.7 14.6 74 2.7 E 11 13 6 7 1016.4 - 0.0
15/07:30pm 19.5 19.2 14.5 73 2.9 SSE 9 13 5 7 1016.1 - 0.0
15/07:00pm 20.0 19.5 14.8 72 3.0 SE 11 17 6 9 1015.8 - 0.0
15/06:30pm 20.6 19.2 14.5 68 3.6 ESE 15 19 8 10 1015.4 - 0.0
15/06:00pm 21.2 19.9 14.8 67 3.8 E 15 19 8 10 1014.9 1014.8 0.0
15/05:30pm 22.0 20.0 13.9 60 4.7 ESE 17 20 9 11 1014.6 - 0.0
15/05:00pm 23.2 20.8 13.7 55 5.5 ESE 19 26 10 14 1014.1 - 0.0
15/04:30pm 24.6 23.1 14.1 52 6.2 S 15 20 8 11 1013.8 - 0.0
15/04:00pm 24.8 23.5 14.9 54 5.9 S 15 20 8 11 1013.6 - 0.0
15/03:30pm 24.8 23.5 14.9 54 5.9 S 15 24 8 13 1013.8 - 0.0
15/03:00pm 24.7 22.6 15.1 55 5.8 S 20 28 11 15 1013.8 1013.7 0.0
15/02:30pm 24.8 23.3 16.2 58 5.3 S 19 28 10 15 1013.9 - 0.0
15/02:00pm 23.6 21.6 15.4 60 4.9 SE 20 28 11 15 1014.0 - 0.0
15/01:30pm 24.3 22.7 15.0 56 5.6 SE 17 24 9 13 1013.8 - 0.0
15/01:00pm 24.5 23.0 16.2 60 5.1 S 19 22 10 12 1014.1 - 0.0
15/12:30pm 25.6 24.4 16.2 56 5.8 SE 17 24 9 13 1014.4 - 0.0
15/12:00pm 24.4 22.6 15.6 58 5.3 S 19 26 10 14 1014.9 1014.8 0.0
15/11:30am 23.8 22.4 16.6 64 4.4 SSW 19 24 10 13 1015.4 - 0.0
15/11:00am 23.0 21.6 15.6 63 4.4 SSW 17 22 9 12 1015.9 - 0.0

Other Formats:

Comma delimited format used in spreadsheet applications
http://www.bom.gov.au/fwo/IDQ60801/IDQ60801.94575.axf

JavaScript Object Notation format (JSON) in row-major order
http://www.bom.gov.au/fwo/IDQ60801/IDQ60801.94575.json